Miscellaneous Local Product
Issued by NWS North Platte, NE

Home | Current Version | Previous Version | Text Only | Print | Product List | Glossary On
Versions: 1 2 3 4 5 6 7 8 9 10 11 12 13 14 15 16 17 18 19 20 21 22 23 24 25 26 27 28 29 30 31 32 33 34 35 36 37 38 39 40 41 42 43 44 45 46 47 48 49 50
629
AXUS43 KLBF 011410
MISLBF


WESTERN AND NORTH CENTRAL NEBRASKA HOURLY WEATHER ROUNDUP
NATIONAL WEATHER SERVICE NORTH PLATTE NE
900 AM CDT SUN MAY 01 2016

NOTE: "FAIR" INDICATES FEW OR NO CLOUDS BELOW 12,000 FEET WITH NO
SIGNIFICANT WEATHER AND/OR OBSTRUCTIONS TO VISIBILITY.

NOTE: STATIONS NOT REPORTING VARIABLES SUCH AS SKY/WEATHER OR
PRESSURE ARE PROVIDED BY RAWS AND APRS NETWORKS AND ARE NOT UNDER
NATIONAL WEATHER SERVICE QUALITY CONTROL.

...OBSERVATIONS IN AND NEAR THE EASTERN PANHANDLE OF NEBRASKA...

CITY           SKY/WX    TMP DP  RH WIND       PRES   REMARKS
PINE RIDGE     SUNNY     40  30  67 N9        30.28R WCI  34
CHADRON        CLOUDY    43  32  65 N10       30.31R
ALLIANCE       CLOUDY    35  31  85 N12       30.27R WCI  27
SIDNEY         CLOUDY    35  32  88 N13       30.28R WCI  26
CRESCENT LAKE    N/A     36  33  88 N13G20      N/A  WCI  27
BIG SPRINGS      N/A     36  35  95 NW7         N/A  WCI  30
$$

...OBSERVATIONS IN NORTHERN NEBRASKA AND FAR SOUTHERN SOUTH DAKOTA...

CITY           SKY/WX    TMP DP  RH WIND       PRES   REMARKS
WINNER         FAIR      43  35  73 N10       30.24R
VALENTINE      SUNNY     41  33  73 N12       30.24R
THEDFORD         N/A     37  35  92 N16       30.20R WCI  28
AINSWORTH      SUNNY     41  36  84 N17       30.21R
O`NEILL        DRIZZLE   42  40  93 N12       30.18R
ORD            LGT RAIN  42  39  89 N12       30.14R
BROKEN BOW     LGT RAIN  41  39  93 N15       30.15R
VALENTINE NWR    N/A     38  35  90 N13G23      N/A  WCI  30
BUTTE            N/A     39  36  88 N13G21      N/A  WCI  31
HALSEY           N/A     38  37  97 NW8G15      N/A  WCI  32
CHAMBERS         N/A     42  41  96 N3G13       N/A
EWING            N/A     41  40  96 N5          N/A
$$

...OBSERVATIONS IN SOUTHWEST NEBRASKA AND FAR NORTHEAST COLORADO...

CITY           SKY/WX    TMP DP  RH WIND       PRES   REMARKS
HOLYOKE        CLOUDY    37  36  93 NW13      30.25R WCI  29
IMPERIAL       CLOUDY    40  36  86 N18       30.23R WCI  31
OGALLALA       MOSUNNY   40  35  82 NW17G23   30.22R WCI  31
NORTH PLATTE   CLOUDY    40  37  89 N12       30.18R WCI  33
MCCOOK         CLOUDY    40  37  89 N14       30.18R WCI  32
LEXINGTON      LGT RAIN  42  39  89 N22       30.14R
PAXTON           N/A     37  36  95 NW6         N/A  WCI  32
STAPLETON        N/A     37  35  93 CALM        N/A
GOTHENBURG       N/A     40  36  87 N13         N/A  WCI  32
CALLAWAY         N/A     38  37  95 N12         N/A  WCI  30
$$

...OBSERVATIONS IN CENTRAL LINCOLN COUNTY AREA...

CITY           SKY/WX    TMP DP  RH WIND       PRES   REMARKS
N.P. AIRPORT   CLOUDY    40  37  89 N12       30.18R WCI  33
N.P. DOWNTOWN    N/A     38  38 100 NW10        N/A  WCI  31
N.P. HILLCREST   N/A     38  38 100 N18         N/A  WCI  28
$$

...SOME OBSERVATIONS FROM AROUND THE REGION...

CITY           SKY/WX    TMP DP  RH WIND       PRES   REMARKS
DENVER         LGT SNOW  33  30  88 N12       30.30R FOG     WCI  24
LARAMIE        CLOUDY    27  21  78 NE3       30.28R
CHEYENNE       CLOUDY    31  27  85 N10       30.29R WCI  22
SCOTTSBLUFF    CLOUDY    40  33  76 N12       30.31R WCI  33
RAPID CITY     SUNNY     45  31  58 N15       30.31R
BISMARCK       SUNNY     44  33  65 CALM      30.34S
PIERRE         SUNNY     44  33  65 N9        30.27R
SIOUX FALLS    LGT RAIN  40  35  83 N12       30.17R WCI  33
OMAHA          DRIZZLE   45  44  97 N10       30.03R FOG
GRAND ISLAND   LGT RAIN  41  39  93 N17       30.11R
KANSAS CITY    MOSUNNY   55  48  77 W8        29.96R
WICHITA        PTSUNNY   48  39  71 NW21G26   30.06R
OKLAHOMA CITY  MOSUNNY   49  39  68 NW20      30.09R
DALLAS         MOSUNNY   63  49  60 N14       30.00R
AMARILLO       PTSUNNY   44  33  65 N22G35    30.14R
DODGE CITY     CLOUDY    40  35  83 NW17G26   30.14R WCI  31
HAYS           CLOUDY    43  32  65 NW16G25   30.12R
GOODLAND       MIX PCPN  35  34  96 N18       30.21R FOG     WCI  24
$$




USA.gov is the U.S. government's official web portal to all federal, state and local government web resources and services.